| time (UTC) | temp F | wind direction | speed knots | gust knots | rain 1hr in | rain 24hr in | rain mn in | humidity % | barometer mb |
| 20260507141529 | 65 | 57 | 7.8 | 11.3 | 0.00 | 0.00 | 0.00 | 87 | 1009.0 |
| 20260507140033 | 64 | 72 | 8.7 | 11.3 | 0.00 | 0.00 | 0.00 | 87 | 1009.0 |
| 20260507134527 | 64 | 77 | 9.6 | 13.0 | 0.00 | 0.00 | 0.00 | 86 | 1009.1 |
| 20260507133024 | 65 | 47 | 11.3 | 16.5 | 0.00 | 0.00 | 0.00 | 85 | 1009.3 |
| 20260507131524 | 65 | 76 | 10.4 | 14.8 | 0.00 | 0.00 | 0.00 | 84 | 1009.4 |
| 20260507130023 | 65 | 40 | 10.4 | 14.8 | 0.00 | 0.00 | 0.00 | 83 | 1009.7 |
| 20260507124522 | 65 | 82 | 8.7 | 13.9 | 0.00 | 0.00 | 0.00 | 81 | 1009.9 |
| 20260507123024 | 65 | 58 | 11.3 | 14.8 | 0.00 | 0.00 | 0.00 | 80 | 1010.0 |
| 20260507121523 | 65 | 61 | 12.2 | 14.8 | 0.00 | 0.00 | 0.00 | 80 | 1009.9 |
| 20260507120020 | 66 | 56 | 12.2 | 17.4 | 0.00 | 0.00 | 0.00 | 80 | 1009.9 |
| 20260507114519 | 66 | 56 | 12.2 | 15.6 | 0.00 | 0.00 | 0.00 | 83 | 1010.0 |
| 20260507113118 | 65 | 58 | 11.3 | 14.8 | 0.00 | 0.00 | 0.00 | 80 | 1010.4 |
| 20260507111518 | 66 | 49 | 13.0 | 15.6 | 0.00 | 0.00 | 0.00 | 80 | 1010.3 |
| 20260507110016 | 66 | 82 | 11.3 | 16.5 | 0.00 | 0.00 | 0.00 | 81 | 1010.4 |
| 20260507104515 | 65 | 74 | 10.4 | 13.9 | 0.00 | 0.00 | 0.00 | 80 | 1010.6 |
| 20260507103014 | 65 | 63 | 10.4 | 13.9 | 0.00 | 0.00 | 0.00 | 80 | 1010.8 |
| 20260507101514 | 65 | 58 | 9.6 | 16.5 | 0.00 | 0.00 | 0.00 | 81 | 1010.6 |
| 20260507100015 | 65 | 63 | 11.3 | 17.4 | 0.00 | 0.00 | 0.00 | 82 | 1010.6 |
| 20260507094515 | 65 | 43 | 12.2 | 15.6 | 0.00 | 0.00 | 0.00 | 81 | 1010.7 |
| 20260507093015 | 65 | 32 | 11.3 | 16.5 | 0.00 | 0.00 | 0.00 | 82 | 1010.7 |
| 20260507091510 | 65 | 73 | 8.7 | 16.5 | 0.00 | 0.00 | 0.00 | 80 | 1010.8 |
| 20260507090010 | 65 | 69 | 10.4 | 15.6 | 0.00 | 0.00 | 0.00 | 80 | 1010.8 |
| 20260507084529 | 65 | 70 | 12.2 | 13.9 | 0.00 | 0.00 | 0.00 | 78 | 1010.9 |
| 20260507083007 | 65 | 25 | 7.0 | 12.2 | 0.00 | 0.00 | 0.00 | 79 | 1010.7 |
| 20260507081518 | 65 | 70 | 7.8 | 11.3 | 0.00 | 0.00 | 0.00 | 76 | 1010.8 |
| 20260507080005 | 65 | 62 | 7.0 | 13.0 | 0.00 | 0.00 | 0.00 | 76 | 1010.7 |
| 20260507074507 | 65 | 69 | 4.3 | 7.8 | 0.00 | 0.00 | 0.00 | 76 | 1010.6 |
| 20260507073004 | 64 | 55 | 6.1 | 9.6 | 0.00 | 0.00 | 0.00 | 77 | 1010.4 |
| 20260507071503 | 65 | 56 | 6.1 | 11.3 | 0.00 | 0.00 | 0.00 | 76 | 1010.2 |
| 20260507070107 | 64 | 32 | 6.1 | 11.3 | 0.00 | 0.00 | 0.00 | 76 | 1010.0 |
| 20260507064559 | 63 | 45 | 6.1 | 9.6 | 0.00 | 0.00 | 0.00 | 77 | 1010.1 |
| 20260507063057 | 63 | 23 | 6.1 | 9.6 | 0.00 | 0.00 | 0.00 | 80 | 1010.1 |
| 20260507061554 | 62 | 40 | 3.5 | 7.0 | 0.00 | 0.00 | 0.00 | 81 | 1010.0 |
| 20260507060053 | 62 | 18 | 3.5 | 6.1 | 0.00 | 0.00 | 0.00 | 82 | 1010.2 |
| 20260507054609 | 62 | 32 | 4.3 | 7.8 | 0.00 | 0.00 | 0.00 | 83 | 1010.0 |
| 20260507053103 | 63 | 53 | 6.1 | 11.3 | 0.00 | 0.00 | 0.00 | 86 | 1010.0 |
| 20260507051556 | 63 | 56 | 8.7 | 13.9 | 0.00 | 0.00 | 0.00 | 87 | 1009.8 |
| 20260507050054 | 63 | 50 | 6.1 | 13.0 | 0.00 | 0.00 | 0.00 | 88 | 1009.6 |
| 20260507044555 | 63 | 47 | 9.6 | 13.0 | 0.00 | 0.00 | 0.00 | 88 | 1009.6 |
| 20260507043048 | 63 | 68 | 10.4 | 13.9 | 0.00 | 0.00 | 0.00 | 89 | 1009.4 |
| 20260507041559 | 62 | 44 | 9.6 | 14.8 | 0.00 | 0.00 | 0.00 | 88 | 1009.4 |
| 20260507040044 | 62 | 54 | 8.7 | 13.0 | 0.00 | 0.00 | 0.00 | 88 | 1009.3 |
| 20260507034544 | 62 | 68 | 9.6 | 13.0 | 0.00 | 0.00 | 0.00 | 88 | 1009.3 |
| 20260507033043 | 62 | 58 | 8.7 | 13.0 | 0.00 | 0.00 | 0.00 | 89 | 1009.3 |
| 20260507031542 | 62 | 46 | 8.7 | 12.2 | 0.00 | 0.00 | 0.00 | 89 | 1009.5 |
| 20260507030037 | 63 | 63 | 6.1 | 11.3 | 0.00 | 0.00 | 0.00 | 88 | 1009.6 |
| 20260507024635 | 62 | 74 | 6.1 | 9.6 | 0.00 | 0.00 | 0.00 | 87 | 1009.7 |
| 20260507023033 | 62 | 49 | 3.5 | 5.2 | 0.00 | 0.00 | 0.00 | 84 | 1009.9 |
| 20260507021536 | 62 | 44 | 2.6 | 5.2 | 0.00 | 0.00 | 0.00 | 85 | 1010.0 |
| 20260507020030 | 62 | 30 | 1.7 | 4.3 | 0.00 | 0.00 | 0.00 | 83 | 1010.2 |
| 20260507014531 | 62 | 18 | 1.7 | 4.3 | 0.00 | 0.00 | 0.00 | 83 | 1010.3 |
| 20260507013029 | 62 | 21 | 2.6 | 4.3 | 0.00 | 0.00 | 0.00 | 84 | 1010.0 |
| 20260507011527 | 62 | 4 | 1.7 | 4.3 | 0.00 | 0.00 | 0.00 | 83 | 1010.0 |
| 20260507010037 | 62 | 21 | 1.7 | 4.3 | 0.00 | 0.00 | 0.00 | 83 | 1010.1 |
| 20260507004527 | 62 | 27 | 2.6 | 7.0 | 0.00 | 0.00 | 0.00 | 84 | 1010.1 |
| 20260507003023 | 62 | 20 | 2.6 | 5.2 | 0.00 | 0.00 | 0.00 | 84 | 1010.2 |
| 20260507001520 | 62 | 20 | 3.5 | 6.1 | 0.00 | 0.00 | 0.00 | 84 | 1010.4 |
| 20260507000023 | 62 | 35 | 3.5 | 7.8 | 0.00 | 0.00 | 0.00 | 85 | 1010.5 |
| 20260506234516 | 63 | 21 | 4.3 | 7.8 | 0.00 | 0.00 | 0.00 | 85 | 1010.7 |
| 20260506233014 | 63 | 50 | 3.5 | 7.8 | 0.00 | 0.00 | 0.00 | 86 | 1010.6 |
| 20260506231611 | 63 | 67 | 3.5 | 7.0 | 0.00 | 0.00 | 0.00 | 87 | 1010.7 |
| 20260506230009 | 63 | 46 | 4.3 | 6.1 | 0.00 | 0.00 | 0.00 | 87 | 1010.8 |
| 20260506224509 | 63 | 23 | 2.6 | 6.1 | 0.00 | 0.00 | 0.00 | 87 | 1010.7 |
| 20260506223008 | 63 | 65 | 3.5 | 6.1 | 0.00 | 0.00 | 0.00 | 87 | 1010.7 |
| 20260506221510 | 63 | 68 | 4.3 | 7.0 | 0.00 | 0.00 | 0.00 | 87 | 1010.7 |
| 20260506220007 | 63 | 44 | 2.6 | 5.2 | 0.00 | 0.00 | 0.00 | 87 | 1010.9 |
| 20260506214506 | 63 | 61 | 2.6 | 5.2 | 0.00 | 0.00 | 0.00 | 86 | 1011.0 |
| 20260506213005 | 63 | 68 | 2.6 | 5.2 | 0.00 | 0.00 | 0.00 | 86 | 1011.3 |
| 20260506211505 | 63 | 72 | 3.5 | 7.0 | 0.00 | 0.00 | 0.00 | 86 | 1011.2 |
| 20260506210002 | 63 | 92 | 6.1 | 7.8 | 0.00 | 0.00 | 0.00 | 86 | 1011.0 |
| 20260506204601 | 63 | 49 | 4.3 | 6.1 | 0.00 | 0.00 | 0.00 | 86 | 1011.0 |
| 20260506203059 | 63 | 74 | 5.2 | 7.0 | 0.00 | 0.00 | 0.00 | 87 | 1010.8 |
| 20260506201600 | 63 | 63 | 6.1 | 8.7 | 0.00 | 0.00 | 0.00 | 87 | 1010.7 |
| 20260506200057 | 63 | 63 | 6.1 | 9.6 | 0.00 | 0.00 | 0.00 | 86 | 1010.5 |
| 20260506194557 | 63 | 49 | 6.1 | 9.6 | 0.00 | 0.00 | 0.00 | 86 | 1010.2 |
| 20260506193058 | 63 | 62 | 7.8 | 9.6 | 0.00 | 0.00 | 0.00 | 86 | 1010.1 |
| 20260506191601 | 63 | 66 | 8.7 | 12.2 | 0.00 | 0.00 | 0.00 | 86 | 1009.8 |
| 20260506190054 | 63 | 51 | 8.7 | 11.3 | 0.00 | 0.00 | 0.00 | 85 | 1009.8 |
| 20260506184557 | 63 | 75 | 8.7 | 11.3 | 0.00 | 0.00 | 0.00 | 85 | 1009.7 |
| 20260506183102 | 63 | 61 | 7.8 | 11.3 | 0.00 | 0.00 | 0.00 | 85 | 1009.5 |
| 20260506181603 | 64 | 79 | 10.4 | 12.2 | 0.00 | 0.00 | 0.00 | 84 | 1009.6 |
| 20260506180049 | 64 | 58 | 9.6 | 13.0 | 0.00 | 0.00 | 0.00 | 85 | 1009.4 |
| 20260506174550 | 64 | 76 | 11.3 | 14.8 | 0.00 | 0.00 | 0.00 | 84 | 1009.6 |
| 20260506173116 | 64 | 59 | 10.4 | 13.9 | 0.00 | 0.00 | 0.00 | 85 | 1009.4 |
| 20260506171547 | 64 | 49 | 11.3 | 15.6 | 0.00 | 0.00 | 0.00 | 85 | 1009.5 |
| 20260506170103 | 65 | 68 | 11.3 | 14.8 | 0.00 | 0.00 | 0.00 | 84 | 1009.3 |
| 20260506164546 | 65 | 61 | 11.3 | 15.6 | 0.00 | 0.00 | 0.00 | 83 | 1009.3 |
| 20260506163054 | 65 | 79 | 11.3 | 16.5 | 0.00 | 0.00 | 0.00 | 82 | 1009.2 |
| 20260506161546 | 65 | 56 | 12.2 | 16.5 | 0.00 | 0.00 | 0.00 | 83 | 1009.3 |
| 20260506160045 | 65 | 63 | 13.0 | 17.4 | 0.00 | 0.00 | 0.00 | 83 | 1009.2 |
| 20260506154600 | 65 | 45 | 13.0 | 16.5 | 0.00 | 0.00 | 0.00 | 82 | 1009.2 |
| 20260506153040 | 65 | 58 | 13.9 | 17.4 | 0.00 | 0.00 | 0.00 | 82 | 1009.3 |
| 20260506151539 | 65 | 70 | 14.8 | 18.2 | 0.00 | 0.00 | 0.00 | 81 | 1009.3 |
| 20260506150038 | 65 | 51 | 13.9 | 17.4 | 0.00 | 0.00 | 0.00 | 79 | 1009.4 |
| 20260506144543 | 65 | 68 | 14.8 | 18.2 | 0.00 | 0.00 | 0.00 | 80 | 1009.5 |
| 20260506143036 | 65 | 59 | 15.6 | 19.1 | 0.00 | 0.00 | 0.00 | 77 | 1009.7 |